This is the latest recevied weather packets stored in our database for station/object NG7N. If no packets are shown the sender has not sent any weather packets the latest 1 day(s).
| Time | Temp. | Humidity | Pressure | Rain* | Wind** | Luminosity | Snow |
|---|---|---|---|---|---|---|---|
| 1778060968 | 11.11° C | 91% | 1017.8 hPa | 0 mm | - | - | - |
| 1778059768 | 11.11° C | 91% | 1017.7 hPa | 0 mm | - | - | - |
| 1778058568 | 11.11° C | 90% | 1017.6 hPa | 0 mm | - | - | - |
| 1778057969 | 11.11° C | 90% | 1017.3 hPa | 0 mm | - | - | - |
| 1778057668 | 11.11° C | 89% | 1017.3 hPa | 0 mm | - | - | - |
| 1778056768 | 11.11° C | 89% | 1017.3 hPa | 0 mm | - | - | - |
| 1778054368 | 11.67° C | 88% | 1017.1 hPa | 0 mm | - | - | - |
| 1778054067 | 11.67° C | 88% | 1017.1 hPa | 0 mm | - | - | - |
| 1778053468 | 11.67° C | 87% | 1016.8 hPa | 0 mm | - | - | - |
| 1778053168 | 12.22° C | 87% | 1016.8 hPa | 0 mm | - | - | - |
| 1778051968 | 12.22° C | 86% | 1016.8 hPa | 0 mm | - | - | - |
| 1778051368 | 12.22° C | 86% | 1016.9 hPa | 0 mm | - | - | - |
| 1778051068 | 12.22° C | 86% | 1016.9 hPa | 0 mm | - | - | - |
| 1778050168 | 12.78° C | 85% | 1016.7 hPa | 0 mm | - | - | - |
| 1778049568 | 12.78° C | 85% | 1016.7 hPa | 0 mm | - | - | - |
| 1778047768 | 13.33° C | 85% | 1016.2 hPa | 0 mm | - | - | - |
| 1778045668 | 13.89° C | 83% | 1016.1 hPa | 0 mm | - | - | - |
| 1778043268 | 14.44° C | 82% | 1015.7 hPa | 0 mm | - | - | - |
| 1778042368 | 15° C | 81% | 1015.7 hPa | 0 mm | - | - | - |
| 1778040868 | 15° C | 81% | 1015.7 hPa | 0 mm | - | - | - |
| 1778039968 | 15° C | 80% | 1015.6 hPa | 0 mm | - | - | - |
| 1778039068 | 15.56° C | 79% | 1015.4 hPa | 0 mm | - | - | - |
| 1778038168 | 15.56° C | 78% | 1015.2 hPa | 0 mm | - | - | - |
| 1778037568 | 16.11° C | 76% | 1015.2 hPa | 0 mm | - | - | - |
| 1778036967 | 16.67° C | 75% | 1015.2 hPa | 0 mm | - | - | - |
* Rain latest hour (hover to see other rain measurements)
** Current wind speed in m/s (hover to see current wind gust speed)